Beaufort, NC

8:54 AM EST on February 09, 2016 (GMT -0500)
Smith

Weather History for KMRH - May, 2014

Change the Weather History Date:

Monday, May 5, 2014

  Actual Average Record
Temperature  
Mean Temperature 66 °F -  
Max Temperature 71 °F 75 °F 84 °F (1991)
Min Temperature 61 °F 55 °F 44 °F (1976)
Growing Degree Days 16 (Base 50)    
Moisture  
Dew Point 52 °F    
Average Humidity 60    
Maximum Humidity 78    
Minimum Humidity 43    
Precipitation  
Precipitation 0.00 in - - ()
Sea Level Pressure  
Sea Level Pressure 29.96 in    
Wind  
Wind Speed 11 mph (East)    
Max Wind Speed 17 mph    
Max Gust Speed 22 mph    
Visibility 10 miles    
Events      
Averages and records for this station are not official NWS values.
T = Trace of Precipitation, MM = Missing Value Source: NWS Daily Summary

Daily Weather History Graph

Daily Weather History Graph

Search for Another Location

Airport or City:

Trip Planner

Search our weather history database for the weather conditions in past years. The results will help you decide how hot, cold, wet, or windy it might be!

Date:

Astronomy

May. 05, 2014 Rise Set
Actual Time 6:12 AM EDT 7:54 PM EDT
Civil Twilight 5:45 AM EDT 8:22 PM EDT
Nautical Twilight 5:12 AM EDT 8:55 PM EDT
Astronomical Twilight 4:37 AM EDT 9:29 PM EDT
Moon 11:29 AM EDT (5/5) 12:38 AM EDT (5/5)
Length of Visible Light 14h 37m
Length of Day
13h 42m
Waxing Crescent, 36% of the Moon is Illuminated
May 5
Waxing Crescent
May 6
First Quarter
May 14
Full
May 21
Last Quarter
May 28
New

Hourly Weather History & Observations

Time (EDT) Temp. Dew Point Humidity Pressure Visibility Wind Dir Wind Speed Gust Speed Precip Events Conditions
12:58 AM 68.0 °F 59.0 °F 73% 29.88 in 10.0 mi WSW 17.3 mph - N/A   Clear
1:58 AM 68.0 °F 57.9 °F 70% 29.87 in 10.0 mi WSW 12.7 mph 21.9 mph N/A   Clear
2:58 AM 66.9 °F 59.0 °F 76% 29.88 in 10.0 mi West 8.1 mph - N/A   Clear
3:58 AM 64.9 °F 55.0 °F 70% 29.91 in 10.0 mi North 8.1 mph - N/A   Clear
4:58 AM 63.0 °F 55.9 °F 78% 29.94 in 10.0 mi NE 6.9 mph - N/A   Clear
5:58 AM 61.0 °F 50.0 °F 67% 29.96 in 10.0 mi ENE 6.9 mph - N/A   Clear
6:58 AM 61.0 °F 46.9 °F 60% 29.98 in 10.0 mi NE 8.1 mph - N/A   Clear
7:58 AM 64.0 °F 46.9 °F 54% 29.99 in 10.0 mi ENE 8.1 mph - N/A   Clear
8:58 AM 66.0 °F 43.0 °F 43% 30.00 in 10.0 mi ENE 10.4 mph 19.6 mph N/A   Clear
9:58 AM 66.9 °F 45.0 °F 45% 30.01 in 10.0 mi ENE 15.0 mph 19.6 mph N/A   Clear
10:58 AM 68.0 °F 46.0 °F 45% 30.02 in 10.0 mi East 9.2 mph - N/A   Clear
11:58 AM 68.0 °F 46.9 °F 47% 30.01 in 10.0 mi East 11.5 mph - N/A   Clear
12:58 PM 69.1 °F 46.9 °F 45% 30.00 in 10.0 mi East 8.1 mph - N/A   Clear
1:58 PM 70.0 °F 50.0 °F 49% 29.98 in 10.0 mi ESE 11.5 mph 18.4 mph N/A   Clear
2:58 PM 69.1 °F 48.9 °F 49% 29.96 in 10.0 mi ESE 12.7 mph - N/A   Clear
3:58 PM 69.1 °F 50.0 °F 51% 29.96 in 10.0 mi ESE 8.1 mph - N/A   Clear
4:58 PM 68.0 °F 51.1 °F 55% 29.95 in 10.0 mi East 10.4 mph - N/A   Clear
5:58 PM 66.9 °F 51.1 °F 57% 29.96 in 10.0 mi East 9.2 mph - N/A   Clear
6:58 PM 66.0 °F 52.0 °F 60% 29.98 in 10.0 mi East 8.1 mph - N/A   Clear
7:58 PM 64.0 °F 51.1 °F 63% 29.98 in 10.0 mi ESE 6.9 mph - N/A   Clear
8:58 PM 64.9 °F 52.0 °F 63% 29.93 in 10.0 mi SE 13.8 mph - N/A   Clear
9:58 PM 66.9 °F 55.9 °F 68% 29.93 in 10.0 mi SE 9.2 mph 20.7 mph N/A   Clear
10:58 PM 66.9 °F 59.0 °F 76% 29.92 in 10.0 mi SE 9.2 mph - N/A   Clear
11:58 PM 68.0 °F 61.0 °F 78% 29.92 in 10.0 mi SSE 9.2 mph - N/A   Scattered Clouds